Time,TemperatureF,DewpointF,PressureIn,WindDirection,WindDirectionDegrees,WindSpeedMPH,WindSpeedGustMPH,Humidity,HourlyPrecipIn,Conditions,Clouds,dailyrainin,SolarRadiationWatts/m^2,SoftwareType,DateUTC
2013-01-14 00:04:00,49.0,48.0,-100.00,SSE,156,0.0,5.0,98,0.01,,,0.68,0.000000,,2013-01-14 05:04:00,
2013-01-14 00:12:00,49.0,48.0,-100.00,SSE,156,0.0,5.0,98,0.01,,,0.68,0.000000,,2013-01-14 05:12:00,
2013-01-14 00:22:00,49.0,48.0,-100.00,SSE,156,0.0,5.0,98,0.01,,,0.68,0.000000,,2013-01-14 05:22:00,
2013-01-14 00:53:00,50.0,50.0,-100.00,WNW,294,5.0,8.0,99,0.00,,,0.68,0.000000,,2013-01-14 05:53:00,
2013-01-14 01:03:00,50.0,50.0,-100.00,WNW,294,5.0,8.0,99,0.00,,,0.68,0.000000,,2013-01-14 06:03:00,
2013-01-14 01:12:00,50.0,50.0,-100.00,WNW,294,5.0,8.0,99,0.00,,,0.68,0.000000,,2013-01-14 06:12:00,
2013-01-14 01:22:00,50.0,50.0,-100.00,WNW,294,5.0,8.0,99,0.00,,,0.68,0.000000,,2013-01-14 06:22:00,
2013-01-14 01:53:00,46.0,46.0,-100.00,West,266,14.0,24.0,99,0.01,,,0.69,0.000000,,2013-01-14 06:53:00,
2013-01-14 02:02:00,46.0,46.0,-100.00,West,266,14.0,24.0,99,0.01,,,0.69,0.000000,,2013-01-14 07:02:00,
2013-01-14 02:12:00,46.0,46.0,-100.00,West,266,14.0,24.0,99,0.01,,,0.69,0.000000,,2013-01-14 07:12:00,
2013-01-14 02:22:00,46.0,46.0,-100.00,West,266,14.0,24.0,99,0.01,,,0.69,0.000000,,2013-01-14 07:22:00,
2013-01-14 02:53:00,42.0,40.0,-100.00,West,279,12.0,24.0,93,0.03,,,0.72,0.000000,,2013-01-14 07:53:00,
2013-01-14 03:02:00,42.0,40.0,-100.00,West,279,12.0,24.0,93,0.03,,,0.72,0.000000,,2013-01-14 08:02:00,
2013-01-14 03:12:00,42.0,40.0,-100.00,West,279,12.0,24.0,93,0.03,,,0.72,0.000000,,2013-01-14 08:12:00,
2013-01-14 03:22:00,42.0,40.0,-100.00,West,279,12.0,24.0,93,0.03,,,0.72,0.000000,,2013-01-14 08:22:00,
2013-01-14 03:53:00,40.0,38.0,-100.00,West,263,9.0,24.0,91,0.01,,,0.73,0.000000,,2013-01-14 08:53:00,
2013-01-14 04:03:00,40.0,38.0,-100.00,West,263,9.0,24.0,91,0.01,,,0.73,0.000000,,2013-01-14 09:03:00,
2013-01-14 04:12:00,40.0,38.0,-100.00,West,263,9.0,24.0,91,0.01,,,0.73,0.000000,,2013-01-14 09:12:00,
2013-01-14 04:23:00,40.0,38.0,-100.00,West,263,9.0,24.0,91,0.01,,,0.73,0.000000,,2013-01-14 09:23:00,
2013-01-14 04:53:00,40.0,37.0,-100.00,WSW,256,11.0,18.0,89,0.00,,,0.26,0.000000,,2013-01-14 09:53:00,
2013-01-14 05:03:00,40.0,37.0,-100.00,WSW,256,11.0,18.0,89,0.00,,,0.26,0.000000,,2013-01-14 10:03:00,
2013-01-14 05:12:00,40.0,37.0,-100.00,WSW,256,11.0,18.0,89,0.00,,,0.26,0.000000,,2013-01-14 10:12:00,
2013-01-14 05:23:00,40.0,37.0,-100.00,WSW,256,11.0,18.0,89,0.00,,,0.26,0.000000,,2013-01-14 10:23:00,
2013-01-14 05:53:00,38.0,34.0,-100.00,West,262,11.0,24.0,86,0.00,,,0.08,0.000000,,2013-01-14 10:53:00,
2013-01-14 06:02:00,38.0,34.0,-100.00,West,262,11.0,24.0,86,0.00,,,0.08,0.000000,,2013-01-14 11:02:00,
2013-01-14 06:12:00,38.0,34.0,-100.00,West,262,11.0,24.0,86,0.00,,,0.08,0.000000,,2013-01-14 11:12:00,
2013-01-14 06:22:00,38.0,34.0,-100.00,West,262,11.0,24.0,86,0.00,,,0.08,0.000000,,2013-01-14 11:22:00,
2013-01-14 06:53:00,37.0,32.0,-100.00,West,263,10.0,24.0,82,0.00,,,0.08,0.000000,,2013-01-14 11:53:00,
2013-01-14 07:03:00,37.0,32.0,-100.00,West,263,10.0,24.0,82,0.00,,,0.08,0.000000,,2013-01-14 12:03:00,
2013-01-14 07:12:00,37.0,32.0,-100.00,West,263,10.0,24.0,82,0.00,,,0.08,0.000000,,2013-01-14 12:12:00,
2013-01-14 07:23:00,37.0,32.0,-100.00,West,263,10.0,24.0,82,0.00,,,0.08,0.000000,,2013-01-14 12:23:00,
2013-01-14 07:53:00,35.0,29.0,-100.00,WNW,282,12.0,24.0,77,0.01,,,0.09,0.000000,,2013-01-14 12:53:00,
2013-01-14 08:03:00,35.0,29.0,-100.00,WNW,282,12.0,24.0,77,0.01,,,0.09,0.000000,,2013-01-14 13:03:00,
2013-01-14 08:13:00,35.0,29.0,-100.00,WNW,282,12.0,24.0,77,0.01,,,0.09,0.000000,,2013-01-14 13:13:00,
2013-01-14 08:23:00,35.0,29.0,-100.00,WNW,282,12.0,24.0,77,0.01,,,0.09,0.000000,,2013-01-14 13:23:00,
2013-01-14 08:53:00,33.0,24.0,-100.00,WNW,284,13.0,23.0,68,0.00,,,0.09,6.000000,,2013-01-14 13:53:00,
2013-01-14 09:03:00,33.0,24.0,-100.00,WNW,284,13.0,23.0,68,0.00,,,0.09,6.000000,,2013-01-14 14:03:00,
2013-01-14 09:13:00,33.0,24.0,-100.00,WNW,284,13.0,23.0,68,0.00,,,0.09,6.000000,,2013-01-14 14:13:00,
2013-01-14 09:23:00,33.0,24.0,-100.00,WNW,284,13.0,23.0,68,0.00,,,0.09,6.000000,,2013-01-14 14:23:00,
2013-01-14 09:53:00,31.0,22.0,-100.00,West,270,12.0,21.0,69,0.00,,,0.09,29.000000,,2013-01-14 14:53:00,
2013-01-14 10:03:00,31.0,22.0,-100.00,West,270,12.0,21.0,69,0.00,,,0.09,29.000000,,2013-01-14 15:03:00,
2013-01-14 10:12:00,31.0,22.0,-100.00,West,270,12.0,21.0,69,0.00,,,0.09,29.000000,,2013-01-14 15:12:00,
2013-01-14 10:23:00,31.0,22.0,-100.00,West,270,12.0,21.0,69,0.00,,,0.09,29.000000,,2013-01-14 15:23:00,
2013-01-14 10:53:00,31.0,22.0,-100.00,West,272,10.0,21.0,69,0.00,,,0.08,50.000000,,2013-01-14 15:53:00,
2013-01-14 11:03:00,31.0,22.0,-100.00,West,272,10.0,21.0,69,0.00,,,0.08,50.000000,,2013-01-14 16:03:00,
2013-01-14 11:13:00,31.0,22.0,-100.00,West,272,10.0,21.0,69,0.00,,,0.08,50.000000,,2013-01-14 16:13:00,
2013-01-14 11:23:00,31.0,22.0,-100.00,West,272,10.0,21.0,69,0.00,,,0.08,50.000000,,2013-01-14 16:23:00,
2013-01-14 11:53:00,31.0,20.0,-100.00,West,265,10.0,19.0,64,0.00,,,0.08,81.000000,,2013-01-14 16:53:00,
2013-01-14 12:03:00,31.0,20.0,-100.00,West,265,10.0,19.0,64,0.00,,,0.08,81.000000,,2013-01-14 17:03:00,
2013-01-14 12:12:00,31.0,20.0,-100.00,West,265,10.0,19.0,64,0.00,,,0.08,81.000000,,2013-01-14 17:12:00,
2013-01-14 12:23:00,31.0,20.0,-100.00,West,265,10.0,19.0,64,0.00,,,0.08,81.000000,,2013-01-14 17:23:00,
2013-01-14 12:54:00,31.0,20.0,-100.00,West,261,9.0,17.0,64,0.00,,,0.08,103.000000,,2013-01-14 17:54:00,
2013-01-14 13:03:00,31.0,20.0,-100.00,West,261,9.0,17.0,64,0.00,,,0.08,103.000000,,2013-01-14 18:03:00,
2013-01-14 13:13:00,31.0,20.0,-100.00,West,261,9.0,17.0,64,0.00,,,0.08,103.000000,,2013-01-14 18:13:00,
2013-01-14 13:23:00,31.0,20.0,-100.00,West,261,9.0,17.0,64,0.00,,,0.08,103.000000,,2013-01-14 18:23:00,
2013-01-14 13:53:00,31.0,20.0,-100.00,West,277,10.0,16.0,62,0.00,,,0.08,95.000000,,2013-01-14 18:53:00,
2013-01-14 14:03:00,31.0,20.0,-100.00,West,277,10.0,16.0,62,0.00,,,0.08,95.000000,,2013-01-14 19:03:00,
2013-01-14 14:13:00,31.0,20.0,-100.00,West,277,10.0,16.0,62,0.00,,,0.08,95.000000,,2013-01-14 19:13:00,
2013-01-14 14:22:00,31.0,20.0,-100.00,West,277,10.0,16.0,62,0.00,,,0.08,95.000000,,2013-01-14 19:22:00,
2013-01-14 14:53:00,31.0,21.0,-100.00,WNW,288,7.0,14.0,67,0.00,,,0.08,78.000000,,2013-01-14 19:53:00,
2013-01-14 15:04:00,31.0,21.0,-100.00,WNW,288,7.0,14.0,67,0.00,,,0.08,78.000000,,2013-01-14 20:04:00,
2013-01-14 15:13:00,31.0,21.0,-100.00,WNW,288,7.0,14.0,67,0.00,,,0.08,78.000000,,2013-01-14 20:13:00,
2013-01-14 15:23:00,31.0,21.0,-100.00,WNW,288,7.0,14.0,67,0.00,,,0.08,78.000000,,2013-01-14 20:23:00,
2013-01-14 15:53:00,30.0,23.0,-100.00,WNW,301,5.0,11.0,74,0.00,,,0.08,65.000000,,2013-01-14 20:53:00,
2013-01-14 16:03:00,30.0,23.0,-100.00,WNW,301,5.0,11.0,74,0.00,,,0.08,65.000000,,2013-01-14 21:03:00,
2013-01-14 16:13:00,30.0,23.0,-100.00,WNW,301,5.0,11.0,74,0.00,,,0.08,65.000000,,2013-01-14 21:13:00,
2013-01-14 16:23:00,30.0,23.0,-100.00,WNW,301,5.0,11.0,74,0.00,,,0.08,65.000000,,2013-01-14 21:23:00,
2013-01-14 16:53:00,30.0,20.0,-100.00,West,269,7.0,13.0,65,0.00,,,0.08,21.000000,,2013-01-14 21:53:00,
2013-01-14 17:03:00,30.0,20.0,-100.00,West,269,7.0,13.0,65,0.00,,,0.08,21.000000,,2013-01-14 22:03:00,
2013-01-14 17:12:00,30.0,20.0,-100.00,West,269,7.0,13.0,65,0.00,,,0.08,21.000000,,2013-01-14 22:12:00,
2013-01-14 17:23:00,30.0,20.0,-100.00,West,269,7.0,13.0,65,0.00,,,0.08,21.000000,,2013-01-14 22:23:00,
2013-01-14 17:53:00,29.0,20.0,-100.00,West,274,8.0,14.0,70,0.00,,,0.08,3.000000,,2013-01-14 22:53:00,
2013-01-14 18:03:00,29.0,20.0,-100.00,West,274,8.0,14.0,70,0.00,,,0.08,3.000000,,2013-01-14 23:03:00,
2013-01-14 18:12:00,29.0,20.0,-100.00,West,274,8.0,14.0,70,0.00,,,0.08,3.000000,,2013-01-14 23:12:00,
2013-01-14 18:23:00,29.0,20.0,-100.00,West,274,8.0,14.0,70,0.00,,,0.08,3.000000,,2013-01-14 23:23:00,
2013-01-14 18:53:00,28.0,19.0,-100.00,West,274,6.0,14.0,68,0.00,,,0.08,0.000000,,2013-01-14 23:53:00,
2013-01-14 19:03:00,28.0,19.0,-100.00,West,274,6.0,14.0,68,0.00,,,0.08,0.000000,,2013-01-15 00:03:00,
2013-01-14 19:12:00,28.0,19.0,-100.00,West,274,6.0,14.0,68,0.00,,,0.08,0.000000,,2013-01-15 00:12:00,
2013-01-14 19:23:00,28.0,19.0,-100.00,West,274,6.0,14.0,68,0.00,,,0.08,0.000000,,2013-01-15 00:23:00,
2013-01-14 19:53:00,28.0,17.0,-100.00,WSW,253,6.0,12.0,63,0.00,,,0.08,0.000000,,2013-01-15 00:53:00,
2013-01-14 20:02:00,28.0,17.0,-100.00,WSW,253,6.0,12.0,63,0.00,,,0.08,0.000000,,2013-01-15 01:02:00,
2013-01-14 20:12:00,28.0,17.0,-100.00,WSW,253,6.0,12.0,63,0.00,,,0.08,0.000000,,2013-01-15 01:12:00,
2013-01-14 20:22:00,28.0,17.0,-100.00,WSW,253,6.0,12.0,63,0.00,,,0.08,0.000000,,2013-01-15 01:22:00,
2013-01-14 20:53:00,28.0,16.0,-100.00,West,261,7.0,11.0,61,0.00,,,0.08,0.000000,,2013-01-15 01:53:00,
2013-01-14 21:03:00,28.0,16.0,-100.00,West,261,7.0,11.0,61,0.00,,,0.08,0.000000,,2013-01-15 02:03:00,
2013-01-14 21:12:00,28.0,16.0,-100.00,West,261,7.0,11.0,61,0.00,,,0.08,0.000000,,2013-01-15 02:12:00,
2013-01-14 21:23:00,28.0,16.0,-100.00,West,261,7.0,11.0,61,0.00,,,0.08,0.000000,,2013-01-15 02:23:00,
2013-01-14 21:53:00,27.0,18.0,-100.00,WSW,256,6.0,13.0,68,0.00,,,0.08,0.000000,,2013-01-15 02:53:00,
2013-01-14 22:03:00,27.0,18.0,-100.00,WSW,256,6.0,13.0,68,0.00,,,0.08,0.000000,,2013-01-15 03:03:00,
2013-01-14 22:12:00,27.0,18.0,-100.00,WSW,256,6.0,13.0,68,0.00,,,0.08,0.000000,,2013-01-15 03:12:00,
2013-01-14 22:22:00,27.0,18.0,-100.00,WSW,256,6.0,13.0,68,0.00,,,0.08,0.000000,,2013-01-15 03:22:00,
2013-01-14 22:53:00,27.0,19.0,-100.00,WSW,241,4.0,8.0,70,0.00,,,0.07,0.000000,,2013-01-15 03:53:00,
2013-01-14 23:03:00,27.0,19.0,-100.00,WSW,241,4.0,8.0,70,0.00,,,0.07,0.000000,,2013-01-15 04:03:00,
2013-01-14 23:12:00,27.0,19.0,-100.00,WSW,241,4.0,8.0,70,0.00,,,0.07,0.000000,,2013-01-15 04:12:00,
2013-01-14 23:22:00,27.0,19.0,-100.00,WSW,241,4.0,8.0,70,0.00,,,0.07,0.000000,,2013-01-15 04:22:00,
2013-01-14 23:52:00,26.0,18.0,-100.00,WSW,257,3.0,7.0,72,0.00,,,0.06,0.000000,,2013-01-15 04:52:00,